Preview of NWS' New Version of Forecast
This preview is not operational and should not be used for support decisions.

Terminal Aerodrome Forecast (TAF)

Issued by National Weather Service (NWS)

                            
000
FTUS45 KBOI 191120
TAFMYL
TAF
KMYL 191120Z 1912/2012 VRB03KT P6SM SKC
     FM192000 20010G15KT P6SM SKC
     FM200200 VRB04KT P6SM SCT250=